﻿測定場所 (Monitoring sites),日付 (Measurement date),時間 (Measurement time),線量率 最大値 (max) μGy/h,線量率 最小値 (min) μGy/h,線量率 平均値 (average) μGy/h,
江戸川 (Edogawa),2024-02-04,23:01～24:00,0.0418,0.0375,0.0394,
江戸川 (Edogawa),2024-02-04,22:01～23:00,0.0417,0.0370,0.0391,
江戸川 (Edogawa),2024-02-04,21:01～22:00,0.0417,0.0367,0.0387,
江戸川 (Edogawa),2024-02-04,20:01～21:00,0.0419,0.0363,0.0388,
江戸川 (Edogawa),2024-02-04,19:01～20:00,0.0413,0.0369,0.0388,
江戸川 (Edogawa),2024-02-04,18:01～19:00,0.0412,0.0369,0.0388,
江戸川 (Edogawa),2024-02-04,17:01～18:00,0.0414,0.0361,0.0388,
江戸川 (Edogawa),2024-02-04,16:01～17:00,0.0402,0.0368,0.0385,
江戸川 (Edogawa),2024-02-04,15:01～16:00,0.0419,0.0361,0.0388,
江戸川 (Edogawa),2024-02-04,14:01～15:00,0.0412,0.0357,0.0389,
江戸川 (Edogawa),2024-02-04,13:01～14:00,0.0418,0.0371,0.0394,
江戸川 (Edogawa),2024-02-04,12:01～13:00,0.0425,0.0382,0.0401,
江戸川 (Edogawa),2024-02-04,11:01～12:00,0.0473,0.0398,0.0436,
江戸川 (Edogawa),2024-02-04,10:01～11:00,0.0557,0.0471,0.0514,
江戸川 (Edogawa),2024-02-04,09:01～10:00,0.0601,0.0518,0.0566,
江戸川 (Edogawa),2024-02-04,08:01～09:00,0.0554,0.0485,0.0520,
江戸川 (Edogawa),2024-02-04,07:01～08:00,0.0521,0.0482,0.0503,
江戸川 (Edogawa),2024-02-04,06:01～07:00,0.0546,0.0484,0.0509,
江戸川 (Edogawa),2024-02-04,05:01～06:00,0.0575,0.0516,0.0546,
江戸川 (Edogawa),2024-02-04,04:01～05:00,0.0568,0.0480,0.0521,
江戸川 (Edogawa),2024-02-04,03:01～04:00,0.0499,0.0430,0.0455,
江戸川 (Edogawa),2024-02-04,02:01～03:00,0.0503,0.0433,0.0472,
江戸川 (Edogawa),2024-02-04,01:01～02:00,0.0518,0.0412,0.0469,
江戸川 (Edogawa),2024-02-04,00:01～01:00,0.0433,0.0374,0.0401,
江戸川 (Edogawa),2024-02-03,23:01～24:00,0.0420,0.0377,0.0400,
江戸川 (Edogawa),2024-02-03,22:01～23:00,0.0423,0.0374,0.0397,
江戸川 (Edogawa),2024-02-03,21:01～22:00,0.0417,0.0381,0.0397,
江戸川 (Edogawa),2024-02-03,20:01～21:00,0.0425,0.0382,0.0399,
江戸川 (Edogawa),2024-02-03,19:01～20:00,0.0412,0.0367,0.0396,
江戸川 (Edogawa),2024-02-03,18:01～19:00,0.0418,0.0376,0.0395,
江戸川 (Edogawa),2024-02-03,17:01～18:00,0.0416,0.0374,0.0395,
江戸川 (Edogawa),2024-02-03,16:01～17:00,0.0416,0.0375,0.0393,
江戸川 (Edogawa),2024-02-03,15:01～16:00,0.0414,0.0360,0.0393,
江戸川 (Edogawa),2024-02-03,14:01～15:00,0.0407,0.0375,0.0392,
江戸川 (Edogawa),2024-02-03,13:01～14:00,0.0415,0.0370,0.0391,
江戸川 (Edogawa),2024-02-03,12:01～13:00,0.0408,0.0374,0.0393,
江戸川 (Edogawa),2024-02-03,11:01～12:00,0.0419,0.0380,0.0400,
江戸川 (Edogawa),2024-02-03,10:01～11:00,0.0423,0.0383,0.0399,
江戸川 (Edogawa),2024-02-03,09:01～10:00,0.0423,0.0374,0.0399,
江戸川 (Edogawa),2024-02-03,08:01～09:00,0.0421,0.0385,0.0403,
江戸川 (Edogawa),2024-02-03,07:01～08:00,0.0423,0.0383,0.0403,
江戸川 (Edogawa),2024-02-03,06:01～07:00,0.0425,0.0382,0.0403,
江戸川 (Edogawa),2024-02-03,05:01～06:00,0.0422,0.0370,0.0403,
江戸川 (Edogawa),2024-02-03,04:01～05:00,0.0426,0.0379,0.0401,
江戸川 (Edogawa),2024-02-03,03:01～04:00,0.0429,0.0382,0.0401,
江戸川 (Edogawa),2024-02-03,02:01～03:00,0.0423,0.0382,0.0404,
江戸川 (Edogawa),2024-02-03,01:01～02:00,0.0425,0.0383,0.0404,
江戸川 (Edogawa),2024-02-03,00:01～01:00,0.0423,0.0379,0.0403,
江戸川 (Edogawa),2024-02-02,23:01～24:00,0.0425,0.0375,0.0397,
江戸川 (Edogawa),2024-02-02,22:01～23:00,0.0433,0.0385,0.0405,
江戸川 (Edogawa),2024-02-02,21:01～22:00,0.0422,0.0379,0.0402,
江戸川 (Edogawa),2024-02-02,20:01～21:00,0.0419,0.0382,0.0398,
江戸川 (Edogawa),2024-02-02,19:01～20:00,0.0425,0.0371,0.0400,
江戸川 (Edogawa),2024-02-02,18:01～19:00,0.0436,0.0377,0.0399,
江戸川 (Edogawa),2024-02-02,17:01～18:00,0.0421,0.0381,0.0400,
江戸川 (Edogawa),2024-02-02,16:01～17:00,0.0425,0.0377,0.0401,
江戸川 (Edogawa),2024-02-02,15:01～16:00,0.0423,0.0378,0.0398,
江戸川 (Edogawa),2024-02-02,14:01～15:00,0.0420,0.0373,0.0399,
江戸川 (Edogawa),2024-02-02,13:01～14:00,0.0419,0.0378,0.0400,
江戸川 (Edogawa),2024-02-02,12:01～13:00,0.0427,0.0379,0.0402,
江戸川 (Edogawa),2024-02-02,11:01～12:00,0.0419,0.0371,0.0398,
江戸川 (Edogawa),2024-02-02,10:01～11:00,0.0435,0.0378,0.0402,
江戸川 (Edogawa),2024-02-02,09:01～10:00,0.0428,0.0385,0.0402,
江戸川 (Edogawa),2024-02-02,08:01～09:00,0.0423,0.0377,0.0403,
江戸川 (Edogawa),2024-02-02,07:01～08:00,0.0420,0.0380,0.0403,
江戸川 (Edogawa),2024-02-02,06:01～07:00,0.0429,0.0388,0.0403,
江戸川 (Edogawa),2024-02-02,05:01～06:00,0.0430,0.0383,0.0402,
江戸川 (Edogawa),2024-02-02,04:01～05:00,0.0438,0.0376,0.0402,
江戸川 (Edogawa),2024-02-02,03:01～04:00,0.0429,0.0381,0.0405,
江戸川 (Edogawa),2024-02-02,02:01～03:00,0.0429,0.0388,0.0407,
江戸川 (Edogawa),2024-02-02,01:01～02:00,0.0426,0.0381,0.0405,
江戸川 (Edogawa),2024-02-02,00:01～01:00,0.0429,0.0384,0.0405,
江戸川 (Edogawa),2024-02-01,23:01～24:00,0.0426,0.0379,0.0405,
江戸川 (Edogawa),2024-02-01,22:01～23:00,0.0433,0.0384,0.0409,
江戸川 (Edogawa),2024-02-01,21:01～22:00,0.0428,0.0393,0.0410,
江戸川 (Edogawa),2024-02-01,20:01～21:00,0.0440,0.0390,0.0412,
江戸川 (Edogawa),2024-02-01,19:01～20:00,0.0435,0.0381,0.0410,
江戸川 (Edogawa),2024-02-01,18:01～19:00,0.0426,0.0378,0.0407,
江戸川 (Edogawa),2024-02-01,17:01～18:00,0.0433,0.0383,0.0408,
江戸川 (Edogawa),2024-02-01,16:01～17:00,0.0430,0.0381,0.0407,
江戸川 (Edogawa),2024-02-01,15:01～16:00,0.0425,0.0382,0.0404,
江戸川 (Edogawa),2024-02-01,14:01～15:00,0.0436,0.0384,0.0407,
江戸川 (Edogawa),2024-02-01,13:01～14:00,0.0441,0.0384,0.0410,
江戸川 (Edogawa),2024-02-01,12:01～13:00,0.0427,0.0379,0.0404,
江戸川 (Edogawa),2024-02-01,11:01～12:00,0.0430,0.0384,0.0404,
江戸川 (Edogawa),2024-02-01,10:01～11:00,0.0424,0.0385,0.0405,
江戸川 (Edogawa),2024-02-01,09:01～10:00,0.0431,0.0382,0.0410,
江戸川 (Edogawa),2024-02-01,08:01～09:00,0.0445,0.0391,0.0417,
江戸川 (Edogawa),2024-02-01,07:01～08:00,0.0444,0.0391,0.0417,
江戸川 (Edogawa),2024-02-01,06:01～07:00,0.0449,0.0401,0.0424,
江戸川 (Edogawa),2024-02-01,05:01～06:00,0.0464,0.0412,0.0434,
江戸川 (Edogawa),2024-02-01,04:01～05:00,0.0461,0.0395,0.0430,
江戸川 (Edogawa),2024-02-01,03:01～04:00,0.0440,0.0395,0.0412,
江戸川 (Edogawa),2024-02-01,02:01～03:00,0.0437,0.0394,0.0411,
江戸川 (Edogawa),2024-02-01,01:01～02:00,0.0431,0.0382,0.0409,
江戸川 (Edogawa),2024-02-01,00:01～01:00,0.0430,0.0386,0.0407,
江戸川 (Edogawa),2024-01-31,23:01～24:00,0.0421,0.0377,0.0398,
江戸川 (Edogawa),2024-01-31,22:01～23:00,0.0416,0.0366,0.0395,
江戸川 (Edogawa),2024-01-31,21:01～22:00,0.0420,0.0371,0.0398,
江戸川 (Edogawa),2024-01-31,20:01～21:00,0.0419,0.0369,0.0395,
江戸川 (Edogawa),2024-01-31,19:01～20:00,0.0416,0.0377,0.0394,
江戸川 (Edogawa),2024-01-31,18:01～19:00,0.0436,0.0373,0.0395,
江戸川 (Edogawa),2024-01-31,17:01～18:00,0.0423,0.0377,0.0399,
江戸川 (Edogawa),2024-01-31,16:01～17:00,0.0416,0.0374,0.0395,
江戸川 (Edogawa),2024-01-31,15:01～16:00,0.0431,0.0382,0.0403,
江戸川 (Edogawa),2024-01-31,14:01～15:00,0.0430,0.0384,0.0404,
江戸川 (Edogawa),2024-01-31,13:01～14:00,0.0431,0.0390,0.0409,
江戸川 (Edogawa),2024-01-31,12:01～13:00,0.0431,0.0384,0.0408,
江戸川 (Edogawa),2024-01-31,11:01～12:00,0.0426,0.0382,0.0406,
江戸川 (Edogawa),2024-01-31,10:01～11:00,0.0439,0.0388,0.0409,
江戸川 (Edogawa),2024-01-31,09:01～10:00,0.0439,0.0390,0.0414,
江戸川 (Edogawa),2024-01-31,08:01～09:00,0.0433,0.0396,0.0416,
江戸川 (Edogawa),2024-01-31,07:01～08:00,0.0444,0.0397,0.0418,
江戸川 (Edogawa),2024-01-31,06:01～07:00,0.0443,0.0388,0.0414,
江戸川 (Edogawa),2024-01-31,05:01～06:00,0.0436,0.0395,0.0416,
江戸川 (Edogawa),2024-01-31,04:01～05:00,0.0433,0.0383,0.0415,
江戸川 (Edogawa),2024-01-31,03:01～04:00,0.0436,0.0374,0.0408,
江戸川 (Edogawa),2024-01-31,02:01～03:00,0.0425,0.0384,0.0405,
江戸川 (Edogawa),2024-01-31,01:01～02:00,0.0429,0.0377,0.0403,
江戸川 (Edogawa),2024-01-31,00:01～01:00,0.0419,0.0374,0.0397,
江戸川 (Edogawa),2024-01-30,23:01～24:00,0.0426,0.0377,0.0397,
江戸川 (Edogawa),2024-01-30,22:01～23:00,0.0418,0.0378,0.0399,
江戸川 (Edogawa),2024-01-30,21:01～22:00,0.0416,0.0367,0.0398,
江戸川 (Edogawa),2024-01-30,20:01～21:00,0.0423,0.0376,0.0394,
江戸川 (Edogawa),2024-01-30,19:01～20:00,0.0420,0.0369,0.0397,
江戸川 (Edogawa),2024-01-30,18:01～19:00,0.0415,0.0363,0.0393,
江戸川 (Edogawa),2024-01-30,17:01～18:00,0.0422,0.0370,0.0396,
江戸川 (Edogawa),2024-01-30,16:01～17:00,0.0423,0.0370,0.0393,
江戸川 (Edogawa),2024-01-30,15:01～16:00,0.0419,0.0377,0.0397,
江戸川 (Edogawa),2024-01-30,14:01～15:00,0.0427,0.0382,0.0401,
江戸川 (Edogawa),2024-01-30,13:01～14:00,0.0420,0.0369,0.0400,
江戸川 (Edogawa),2024-01-30,12:01～13:00,0.0425,0.0377,0.0400,
江戸川 (Edogawa),2024-01-30,11:01～12:00,0.0422,0.0371,0.0403,
江戸川 (Edogawa),2024-01-30,10:01～11:00,0.0433,0.0385,0.0411,
江戸川 (Edogawa),2024-01-30,09:01～10:00,0.0434,0.0383,0.0412,
江戸川 (Edogawa),2024-01-30,08:01～09:00,0.0441,0.0390,0.0413,
江戸川 (Edogawa),2024-01-30,07:01～08:00,0.0434,0.0385,0.0412,
江戸川 (Edogawa),2024-01-30,06:01～07:00,0.0427,0.0384,0.0409,
江戸川 (Edogawa),2024-01-30,05:01～06:00,0.0430,0.0388,0.0408,
江戸川 (Edogawa),2024-01-30,04:01～05:00,0.0429,0.0393,0.0410,
江戸川 (Edogawa),2024-01-30,03:01～04:00,0.0419,0.0367,0.0402,
江戸川 (Edogawa),2024-01-30,02:01～03:00,0.0426,0.0384,0.0402,
江戸川 (Edogawa),2024-01-30,01:01～02:00,0.0422,0.0374,0.0398,
江戸川 (Edogawa),2024-01-30,00:01～01:00,0.0426,0.0383,0.0400,
江戸川 (Edogawa),2024-01-29,23:01～24:00,0.0422,0.0374,0.0397,
江戸川 (Edogawa),2024-01-29,22:01～23:00,0.0420,0.0372,0.0395,
江戸川 (Edogawa),2024-01-29,21:01～22:00,0.0411,0.0371,0.0391,
江戸川 (Edogawa),2024-01-29,20:01～21:00,0.0420,0.0372,0.0395,
江戸川 (Edogawa),2024-01-29,19:01～20:00,0.0418,0.0367,0.0391,
江戸川 (Edogawa),2024-01-29,18:01～19:00,0.0416,0.0367,0.0391,
江戸川 (Edogawa),2024-01-29,17:01～18:00,0.0410,0.0360,0.0390,
江戸川 (Edogawa),2024-01-29,16:01～17:00,0.0418,0.0373,0.0390,
江戸川 (Edogawa),2024-01-29,15:01～16:00,0.0408,0.0366,0.0390,
江戸川 (Edogawa),2024-01-29,14:01～15:00,0.0425,0.0375,0.0400,
江戸川 (Edogawa),2024-01-29,13:01～14:00,0.0419,0.0367,0.0396,
江戸川 (Edogawa),2024-01-29,12:01～13:00,0.0424,0.0363,0.0397,
江戸川 (Edogawa),2024-01-29,11:01～12:00,0.0426,0.0376,0.0399,
江戸川 (Edogawa),2024-01-29,10:01～11:00,0.0423,0.0375,0.0401,
江戸川 (Edogawa),2024-01-29,09:01～10:00,0.0419,0.0382,0.0400,
江戸川 (Edogawa),2024-01-29,08:01～09:00,0.0429,0.0387,0.0407,
江戸川 (Edogawa),2024-01-29,07:01～08:00,0.0428,0.0384,0.0401,
江戸川 (Edogawa),2024-01-29,06:01～07:00,0.0419,0.0384,0.0403,
江戸川 (Edogawa),2024-01-29,05:01～06:00,0.0437,0.0377,0.0403,
江戸川 (Edogawa),2024-01-29,04:01～05:00,0.0427,0.0376,0.0402,
江戸川 (Edogawa),2024-01-29,03:01～04:00,0.0426,0.0378,0.0405,
江戸川 (Edogawa),2024-01-29,02:01～03:00,0.0427,0.0381,0.0403,
江戸川 (Edogawa),2024-01-29,01:01～02:00,0.0426,0.0381,0.0404,
江戸川 (Edogawa),2024-01-29,00:01～01:00,0.0425,0.0376,0.0406,
